TimeCST,TemperatureF,Dew PointF,Humidity,Sea Level PressureIn,VisibilityMPH,Wind Direction,Wind SpeedMPH,Gust SpeedMPH,PrecipitationIn,Events,Conditions,WindDirDegrees,DateUTC
12:53 AM,35.1,33.1,92,30.22,5.0,NNW,12.7,-,N/A,,Overcast,340,2012-11-05 06:53:00
1:53 AM,35.1,33.1,92,30.23,7.0,NNW,9.2,-,N/A,,Overcast,340,2012-11-05 07:53:00
2:16 AM,35.6,33.8,93,30.19,7.0,NNW,11.5,-,N/A,,Overcast,340,2012-11-05 08:16:00
2:53 AM,35.1,33.1,92,30.23,7.0,NNW,9.2,-,N/A,,Overcast,330,2012-11-05 08:53:00
3:53 AM,35.1,33.1,92,30.24,6.0,NW,11.5,-,N/A,,Overcast,320,2012-11-05 09:53:00
4:37 AM,35.6,33.8,93,30.20,5.0,NNW,9.2,-,N/A,,Overcast,340,2012-11-05 10:37:00
4:53 AM,35.1,34.0,96,30.24,5.0,North,9.2,-,N/A,,Overcast,350,2012-11-05 10:53:00
5:53 AM,35.1,34.0,96,30.25,6.0,NNW,8.1,-,N/A,,Overcast,330,2012-11-05 11:53:00
6:53 AM,35.1,34.0,96,30.24,5.0,NNW,9.2,-,N/A,,Overcast,330,2012-11-05 12:53:00
7:53 AM,36.0,34.0,93,30.25,4.0,NNW,6.9,-,N/A,,Overcast,340,2012-11-05 13:53:00
8:53 AM,37.0,35.1,93,30.26,5.0,NNW,8.1,-,N/A,,Overcast,330,2012-11-05 14:53:00
9:07 AM,37.4,35.6,93,30.22,5.0,NNW,8.1,-,N/A,,Overcast,330,2012-11-05 15:07:00
9:53 AM,37.0,35.1,93,30.25,6.0,NNW,6.9,-,N/A,,Overcast,330,2012-11-05 15:53:00
10:53 AM,37.0,35.1,93,30.26,5.0,WNW,6.9,-,N/A,,Overcast,300,2012-11-05 16:53:00
11:30 AM,37.4,33.8,87,30.22,9.0,NNW,6.9,-,N/A,,Overcast,330,2012-11-05 17:30:00
11:53 AM,39.0,33.1,79,30.24,10.0,North,3.5,-,N/A,,Overcast,350,2012-11-05 17:53:00
12:43 PM,39.2,33.8,81,30.17,10.0,Calm,Calm,-,N/A,,Overcast,0,2012-11-05 18:43:00
12:53 PM,39.0,33.1,79,30.20,10.0,Calm,Calm,-,N/A,,Overcast,0,2012-11-05 18:53:00
1:53 PM,39.9,32.0,73,30.16,10.0,Calm,Calm,-,N/A,,Overcast,0,2012-11-05 19:53:00
2:53 PM,39.9,33.1,77,30.14,10.0,South,3.5,-,N/A,,Overcast,190,2012-11-05 20:53:00
3:53 PM,41.0,34.0,76,30.12,10.0,SSE,8.1,-,N/A,,Overcast,160,2012-11-05 21:53:00
4:53 PM,41.0,34.0,76,30.10,10.0,SSW,6.9,-,N/A,,Overcast,210,2012-11-05 22:53:00
5:53 PM,41.0,34.0,76,30.09,10.0,South,8.1,-,N/A,,Overcast,180,2012-11-05 23:53:00
6:27 PM,41.0,33.8,76,30.04,10.0,South,8.1,-,N/A,,Overcast,180,2012-11-06 00:27:00
6:53 PM,41.0,34.0,76,30.06,10.0,South,10.4,-,N/A,,Overcast,170,2012-11-06 00:53:00
7:53 PM,41.0,35.1,79,30.03,10.0,South,11.5,-,N/A,,Overcast,180,2012-11-06 01:53:00
8:53 PM,41.0,35.1,79,30.01,10.0,South,13.8,-,0.00,,Overcast,180,2012-11-06 02:53:00
9:53 PM,39.9,35.1,83,29.94,10.0,South,16.1,27.6,N/A,,Partly Cloudy,180,2012-11-06 03:53:00
10:53 PM,41.0,35.1,79,29.93,10.0,South,13.8,-,N/A,,Overcast,180,2012-11-06 04:53:00
11:53 PM,42.1,36.0,79,29.88,10.0,SSW,16.1,23.0,0.00,,Overcast,200,2012-11-06 05:53:00